Home > Weather > Mutsamudu > Past weeks

Flag for Comoros Weather for the Past 2 Weeks in Mutsamudu, Comoros

Now
79 °F

Rain. Partly cloudy.


Feels Like: 82 °F
Forecast: 79 / 81 °F
Wind: 12 mph from West

Location: Dzaoudzi / Pamanzi Mayotte

Current Time: Feb 7, 2016 at 2:58:47 AM

Latest Report: Feb 7, 2016 at 2:00 AM


Visibility: N/A

Pressure: 29.77 "Hg

Humidity: 89%

Dew point: 75 °F

Location of MutsamuduLocation

Historic Weather in Mutsamudu — Graph

°F

Mutsamudu Temperature Yesterday

Maximum temperature yesterday: 88 °F (at 12:30 PM)
Minimum temperature yesterday: 75 °F (at 3:00 PM)
Average temperature yesterday: 82 °F

High & Low Weather Summary for the Past Weeks

 TemperatureHumidityPressure
High90 °F (Jan 23, 4:04 PM)94% (Jan 24, 6:30 PM)32.81 "Hg (Jan 24, 6:30 PM)
Low75 °F (Feb 3, 7:00 PM)59% (Jan 23, 4:04 PM)29.71 "Hg (Feb 1, 3:30 AM)
Average81 °F81%29.84 "Hg
* Reported Jan 23 1:00 AM — Feb 7 1:30 AM, Mutsamudu, Weather by CustomWeather, © 2016

Note: Actual official high and low records may vary slightly from our data, if they occured in-between our weather recording intervals... More about our weather records

Advertising

Mutsamudu Weather History for the Previous 24 Hours

 ConditionsComfort  
Time TempWeatherWind HumidityBarometerVisibility
1:30 AM
Sun, Feb 7
77 °FLight rain. Passing clouds.13 mph94%29.77 "Hg4 mi
1:00 AM77 °FHeavy rain. Fog.15 mph94%29.80 "Hg2 mi
12:00 AM79 °FHeavy rain. Fog.10 mph89%29.80 "Hg2 mi
11:30 PM
Sat, Feb 6
81 °FLight rain. Mostly cloudy.12 mph84%29.80 "HgN/A
11:00 PM81 °FPartly cloudy.8 mph84%29.83 "HgN/A
10:30 PM81 °FPartly cloudy.12 mph84%29.83 "HgN/A
10:00 PM79 °FPartly cloudy.13 mph89%29.83 "HgN/A
9:30 PM81 °FMostly cloudy.10 mph84%29.83 "HgN/A
9:00 PM81 °FPartly cloudy.8 mph79%29.83 "HgN/A
8:30 PM81 °FPassing clouds.16 mph84%29.80 "HgN/A
8:00 PM81 °FWarm.18 mph79%29.80 "HgN/A
7:30 PM79 °FPassing clouds.13 mph84%29.77 "HgN/A
7:00 PM79 °FLight rain. Partly cloudy.12 mph89%29.77 "HgN/A
6:30 PM77 °FRain. Fog.13 mph89%29.80 "Hg3 mi
5:30 PM79 °FScattered showers. Broken clouds.15 mph89%29.77 "HgN/A
5:00 PM79 °FLight rain. Broken clouds.18 mph89%29.77 "Hg6 mi
4:30 PM79 °FLight rain. Broken clouds.22 mph89%29.77 "Hg6 mi
4:00 PM79 °FThunderstorms. Broken clouds.15 mph84%29.77 "Hg5 mi
3:30 PM77 °FRain showers. Scattered clouds.21 mph89%29.80 "Hg5 mi
3:06 PM75 °FRain showers. Scattered clouds.21 mph94%29.80 "Hg5 mi
3:00 PM75 °FRain showers. Scattered clouds.21 mph89%29.80 "Hg3 mi
2:30 PM77 °FRain showers. Partly sunny.25 mph83%29.80 "Hg3 mi
2:00 PM86 °FScattered showers. Broken clouds.21 mph70%29.77 "HgN/A
1:30 PM86 °FScattered showers. Broken clouds.16 mph70%29.80 "HgN/A
1:00 PM88 °FPartly sunny.18 mph66%29.80 "HgN/A
12:30 PM88 °FPartly sunny.17 mph66%29.80 "HgN/A
12:00 PM86 °FPartly sunny.18 mph70%29.83 "HgN/A
11:30 AM86 °FBroken clouds.16 mph70%29.83 "HgN/A
11:05 AM86 °FBroken clouds.17 mph70%29.86 "HgN/A
10:30 AM86 °FBroken clouds.20 mph70%29.86 "HgN/A
10:00 AM86 °FBroken clouds.16 mph70%29.86 "HgN/A
9:30 AM84 °FMore clouds than sun.16 mph79%29.86 "HgN/A
9:00 AM84 °FMore clouds than sun.16 mph79%29.86 "HgN/A
8:30 AM84 °FMore clouds than sun.16 mph74%29.86 "HgN/A
8:00 AM84 °FBroken clouds.15 mph79%29.86 "HgN/A
7:00 AM82 °FBroken clouds.17 mph79%29.83 "HgN/A
6:30 AM82 °FBroken clouds.16 mph79%29.83 "HgN/A
6:00 AM82 °FScattered showers. Broken clouds.16 mph79%29.83 "HgN/A
5:00 AM82 °FPartly cloudy.16 mph79%29.80 "HgN/A
4:30 AM82 °FPartly cloudy.10 mph84%29.80 "HgN/A
3:30 AM82 °FPassing clouds.9 mph84%29.77 "HgN/A
3:00 AM82 °FPartly cloudy.7 mph84%29.77 "HgN/A
2:30 AM81 °FPassing clouds.9 mph89%29.77 "HgN/A
2:00 AM81 °FPartly cloudy.6 mph84%29.80 "HgN/A
Weather by CustomWeather, © 2016

See weather overviewHow to use our weather pages